Weather History for Taba International, Egypt

Change the Weather History Date:

Saturday, January 5, 2013

  Actual Average (LLOV) Record (LLOV)
Temperature  
Mean Temperature 48 °F -  
Max Temperature 57 °F 60 °F 71 °F (2004)
Min Temperature 39 °F 41 °F 30 °F (2009)
Degree Days  
Heating Degree Days 17    
Moisture  
Dew Point 38 °F    
Average Humidity 70    
Maximum Humidity 100    
Minimum Humidity 33    
Precipitation  
Precipitation 0.00 in - - ()
Sea Level Pressure  
Sea Level Pressure 30.01 in    
Wind  
Wind Speed 1 mph ()    
Max Wind Speed 8 mph    
Max Gust Speed -    
Visibility 5.5 miles    
Events      
Averages and records for this station are not official NWS values.
T = Trace of Precipitation, MM = Missing Value Source: Averaged Metar Reports

Daily Weather History Graph

Daily Weather History Graph

Search for Another Location

Airport:

Trip Planner

Search our weather history database for the weather conditions in past years. The results will help you decide how hot, cold, wet, or windy it might be!

Date:

Astronomy

Jan. 05, 2013 Rise Set
Actual Time 6:36 AM EET 4:56 PM EET
Civil Twilight 6:10 AM EET 5:22 PM EET
Nautical Twilight 5:41 AM EET 5:51 PM EET
Astronomical Twilight 5:12 AM EET 6:20 PM EET
Moon No Moon Rise 11:19 AM EET (1/5)
Length of Visible Light 11h 11m
Length of Day
10h 19m
Waning Gibbous, 47% of the Moon is Illuminated
Jan 5
Waning Gibbous
Jan 11
New
Jan 19
First Quarter
Jan 27
Full
Feb 3
Last Quarter

Hourly Weather History & Observations

Time (EET) Temp. Dew Point Humidity Pressure Visibility Wind Dir Wind Speed Gust Speed Precip Events Conditions
12:00 AM 46.4 °F 41.0 °F 81% 30.04 in - Calm Calm - N/A   Clear
1:00 AM 46.4 °F 42.8 °F 87% 30.04 in - Calm Calm - N/A   Clear
2:00 AM 44.6 °F 44.6 °F 100% 30.04 in - Calm Calm - N/A   Clear
3:00 AM 42.8 °F 41.0 °F 93% 30.04 in - Calm Calm - N/A   Clear
4:00 AM 42.8 °F 39.2 °F 87% 30.01 in - Calm Calm - N/A   Clear
5:00 AM 41.0 °F 39.2 °F 93% 30.01 in - Calm Calm - N/A   Clear
6:00 AM 39.2 °F 37.4 °F 93% 30.01 in - Calm Calm - N/A   Clear
7:00 AM 41.0 °F 41.0 °F 100% 30.04 in 3.7 mi Calm Calm - N/A   Unknown
8:00 AM 42.8 °F 41.0 °F 93% 30.04 in 3.7 mi Calm Calm - N/A   Unknown
9:00 AM 48.2 °F 41.0 °F 76% 30.04 in 5.0 mi WNW 8.1 mph - N/A   Unknown
10:00 AM 51.8 °F 41.0 °F 67% 30.04 in - West 2.3 mph - N/A   Clear
11:00 AM 53.6 °F 39.2 °F 58% 30.01 in - WNW 4.6 mph - N/A   Clear
12:00 PM 55.4 °F 37.4 °F 51% 30.01 in 6.2 mi Calm Calm - N/A   Scattered Clouds
1:00 PM 55.4 °F 37.4 °F 51% 30.01 in 6.2 mi Calm Calm - N/A   Scattered Clouds
2:00 PM 57.2 °F 28.4 °F 33% 29.95 in 6.2 mi West 2.3 mph - N/A   Scattered Clouds
3:00 PM 57.2 °F 32.0 °F 38% 29.95 in 6.2 mi West 3.5 mph - N/A   Mostly Cloudy
5:00 PM 53.6 °F 33.8 °F 47% 29.95 in 6.2 mi WNW 4.6 mph - N/A   Mostly Cloudy
6:00 PM 51.8 °F 33.8 °F 50% 29.95 in 6.2 mi WNW 4.6 mph - N/A   Mostly Cloudy
8:00 PM 50.0 °F 33.8 °F 54% 30.01 in - Calm Calm - N/A   Clear
9:00 PM 48.2 °F 33.8 °F 58% 29.98 in - Calm Calm - N/A   Clear
10:00 PM 48.2 °F 33.8 °F 58% 29.98 in - Calm Calm - N/A   Clear
11:00 PM 46.4 °F 33.8 °F 62% 29.98 in - Calm Calm - N/A   Clear